| time (UTC) | temp F | wind direction | speed MPH | gust MPH | rain 1hr in | rain 24hr in | rain mn in | humidity % | barometer mb |
| 20260507201532 | 61 | 300 | 2.0 | 17.0 | 0.00 | 0.00 | 0.00 | 41 | 1014.4 |
| 20260507201017 | 61 | 345 | 8.0 | 17.0 | 0.00 | 0.00 | 0.00 | 41 | 1014.6 |
| 20260507200515 | 60 | 343 | 3.0 | 13.0 | 0.00 | 0.00 | 0.00 | 42 | 1014.6 |
| 20260507200034 | 61 | 35 | 5.0 | 13.0 | 0.00 | 0.00 | 0.00 | 40 | 1014.7 |
| 20260507195514 | 60 | 3 | 4.0 | 15.0 | 0.00 | 0.00 | 0.00 | 40 | 1014.6 |
| 20260507195014 | 60 | 282 | 5.0 | 15.0 | 0.00 | 0.00 | 0.00 | 40 | 1014.9 |
| 20260507194546 | 61 | 309 | 7.0 | 15.0 | 0.00 | 0.00 | 0.00 | 42 | 1014.8 |
| 20260507194014 | 61 | 41 | 4.0 | 14.0 | 0.00 | 0.00 | 0.00 | 40 | 1014.7 |
| 20260507193518 | 61 | 313 | 5.0 | 14.0 | 0.00 | 0.00 | 0.00 | 40 | 1014.8 |
| 20260507193031 | 61 | 150 | 3.0 | 11.0 | 0.00 | 0.00 | 0.00 | 38 | 1014.7 |
| 20260507192513 | 60 | 292 | 3.0 | 11.0 | 0.00 | 0.00 | 0.00 | 42 | 1014.9 |
| 20260507192014 | 60 | 273 | 6.0 | 13.0 | 0.00 | 0.00 | 0.00 | 40 | 1014.8 |
| 20260507191532 | 60 | 351 | 7.0 | 14.0 | 0.00 | 0.00 | 0.00 | 40 | 1014.7 |
| 20260507191018 | 60 | 24 | 8.0 | 14.0 | 0.00 | 0.00 | 0.00 | 39 | 1014.8 |
| 20260507190513 | 60 | 14 | 7.0 | 13.0 | 0.00 | 0.00 | 0.00 | 39 | 1014.8 |
| 20260507190044 | 59 | 49 | 6.0 | 14.0 | 0.00 | 0.00 | 0.00 | 41 | 1014.9 |
| 20260507185527 | 60 | 23 | 5.0 | 14.0 | 0.00 | 0.00 | 0.00 | 40 | 1014.9 |
| 20260507185013 | 60 | 348 | 2.0 | 12.0 | 0.00 | 0.00 | 0.00 | 42 | 1015.0 |
| 20260507184541 | 59 | 6 | 5.0 | 14.0 | 0.00 | 0.00 | 0.00 | 41 | 1014.9 |
| 20260507184013 | 58 | 18 | 7.0 | 14.0 | 0.00 | 0.00 | 0.00 | 40 | 1015.0 |
| 20260507183514 | 59 | 42 | 8.0 | 13.0 | 0.00 | 0.00 | 0.00 | 40 | 1015.0 |
| 20260507183030 | 59 | 347 | 7.0 | 13.0 | 0.00 | 0.00 | 0.00 | 39 | 1015.0 |
| 20260507182512 | 59 | 347 | 6.0 | 15.0 | 0.00 | 0.00 | 0.00 | 42 | 1015.1 |
| 20260507182015 | 58 | 25 | 8.0 | 15.0 | 0.00 | 0.00 | 0.00 | 41 | 1015.0 |
| 20260507181531 | 59 | 8 | 6.0 | 13.0 | 0.00 | 0.00 | 0.00 | 38 | 1015.0 |
| 20260507181010 | 59 | 23 | 3.0 | 12.0 | 0.00 | 0.00 | 0.00 | 41 | 1015.0 |
| 20260507180511 | 59 | 311 | 4.0 | 11.0 | 0.00 | 0.00 | 0.00 | 40 | 1015.2 |
| 20260507180032 | 59 | 281 | 6.0 | 11.0 | 0.00 | 0.00 | 0.00 | 41 | 1015.2 |
| 20260507175510 | 59 | 34 | 3.0 | 11.0 | 0.00 | 0.00 | 0.00 | 43 | 1015.1 |
| 20260507175014 | 58 | 285 | 5.0 | 11.0 | 0.00 | 0.00 | 0.00 | 41 | 1015.2 |
| 20260507174535 | 58 | 275 | 5.0 | 14.0 | 0.00 | 0.00 | 0.00 | 41 | 1015.2 |
| 20260507174011 | 59 | 34 | 6.0 | 14.0 | 0.00 | 0.00 | 0.00 | 38 | 1015.4 |
| 20260507173517 | 58 | 252 | 4.0 | 13.0 | 0.00 | 0.00 | 0.00 | 39 | 1015.4 |
| 20260507173043 | 58 | 11 | 5.0 | 11.0 | 0.00 | 0.00 | 0.00 | 41 | 1015.5 |
| 20260507172513 | 58 | 331 | 4.0 | 14.0 | 0.00 | 0.00 | 0.00 | 42 | 1015.4 |
| 20260507172013 | 58 | 12 | 5.0 | 14.0 | 0.00 | 0.00 | 0.00 | 40 | 1015.6 |
| 20260507171530 | 58 | 335 | 4.0 | 9.0 | 0.00 | 0.00 | 0.00 | 39 | 1015.6 |
| 20260507171012 | 58 | 308 | 4.0 | 14.0 | 0.00 | 0.00 | 0.00 | 41 | 1015.7 |
| 20260507170511 | 57 | 290 | 7.0 | 14.0 | 0.00 | 0.00 | 0.00 | 42 | 1015.8 |
| 20260507170031 | 57 | 332 | 3.0 | 12.0 | 0.00 | 0.00 | 0.00 | 43 | 1015.7 |
| 20260507165511 | 57 | 337 | 6.0 | 13.0 | 0.00 | 0.00 | 0.00 | 43 | 1015.8 |
| 20260507165013 | 57 | 352 | 7.0 | 16.0 | 0.00 | 0.00 | 0.00 | 39 | 1015.8 |
| 20260507164544 | 57 | 42 | 9.0 | 16.0 | 0.00 | 0.00 | 0.00 | 40 | 1015.9 |
| 20260507164011 | 58 | 51 | 5.0 | 12.0 | 0.00 | 0.00 | 0.00 | 41 | 1015.9 |
| 20260507163512 | 57 | 339 | 3.0 | 12.0 | 0.00 | 0.00 | 0.00 | 43 | 1016.0 |
| 20260507163032 | 57 | 338 | 6.0 | 12.0 | 0.00 | 0.00 | 0.00 | 40 | 1016.0 |
| 20260507162512 | 57 | 20 | 2.0 | 7.0 | 0.00 | 0.00 | 0.00 | 41 | 1016.1 |
| 20260507162016 | 57 | 274 | 2.0 | 10.0 | 0.00 | 0.00 | 0.00 | 42 | 1016.2 |
| 20260507161546 | 56 | 262 | 2.0 | 13.0 | 0.00 | 0.00 | 0.00 | 46 | 1016.2 |
| 20260507161010 | 56 | 11 | 5.0 | 13.0 | 0.00 | 0.00 | 0.00 | 41 | 1016.1 |
| 20260507160512 | 56 | 341 | 7.0 | 11.0 | 0.00 | 0.00 | 0.00 | 43 | 1016.1 |
| 20260507160030 | 56 | 2 | 3.0 | 9.0 | 0.00 | 0.00 | 0.00 | 43 | 1016.0 |
| 20260507155510 | 56 | 338 | 5.0 | 12.0 | 0.00 | 0.00 | 0.00 | 43 | 1016.1 |
| 20260507155014 | 56 | 327 | 4.0 | 16.0 | 0.00 | 0.00 | 0.00 | 44 | 1016.2 |
| 20260507154532 | 55 | 331 | 7.0 | 16.0 | 0.00 | 0.00 | 0.00 | 45 | 1016.2 |
| 20260507154013 | 55 | 41 | 6.0 | 12.0 | 0.00 | 0.00 | 0.00 | 45 | 1016.0 |
| 20260507153513 | 55 | 328 | 4.0 | 11.0 | 0.00 | 0.00 | 0.00 | 47 | 1016.1 |
| 20260507153036 | 55 | 318 | 5.0 | 11.0 | 0.00 | 0.00 | 0.00 | 48 | 1016.0 |
| 20260507152520 | 55 | 210 | 5.0 | 12.0 | 0.00 | 0.00 | 0.00 | 47 | 1015.9 |
| 20260507152010 | 54 | 282 | 6.0 | 14.0 | 0.00 | 0.00 | 0.00 | 48 | 1016.0 |
| 20260507151536 | 54 | 359 | 6.0 | 14.0 | 0.00 | 0.00 | 0.00 | 46 | 1016.0 |
| 20260507151013 | 54 | 355 | 9.0 | 14.0 | 0.00 | 0.00 | 0.00 | 46 | 1016.0 |
| 20260507150513 | 54 | 31 | 5.0 | 11.0 | 0.00 | 0.00 | 0.00 | 46 | 1016.0 |
| 20260507150036 | 55 | 339 | 4.0 | 10.0 | 0.00 | 0.00 | 0.00 | 49 | 1015.9 |
| 20260507145512 | 55 | 30 | 5.0 | 11.0 | 0.00 | 0.00 | 0.00 | 47 | 1015.8 |
| 20260507145018 | 54 | 46 | 5.0 | 15.0 | 0.00 | 0.00 | 0.00 | 50 | 1015.9 |
| 20260507144536 | 54 | 14 | 7.0 | 15.0 | 0.00 | 0.00 | 0.00 | 50 | 1015.9 |
| 20260507144009 | 54 | 34 | 7.0 | 15.0 | 0.00 | 0.00 | 0.00 | 50 | 1015.9 |
| 20260507143512 | 54 | 3 | 4.0 | 11.0 | 0.00 | 0.00 | 0.00 | 52 | 1016.1 |
| 20260507143036 | 54 | 333 | 4.0 | 12.0 | 0.00 | 0.00 | 0.00 | 51 | 1016.0 |
| 20260507142512 | 53 | 44 | 6.0 | 12.0 | 0.00 | 0.00 | 0.00 | 49 | 1016.0 |
| 20260507142012 | 53 | 32 | 6.0 | 10.0 | 0.00 | 0.00 | 0.00 | 52 | 1015.9 |
| 20260507141534 | 53 | 353 | 4.0 | 11.0 | 0.00 | 0.00 | 0.00 | 53 | 1016.0 |
| 20260507141015 | 53 | 25 | 4.0 | 11.0 | 0.00 | 0.00 | 0.00 | 52 | 1015.9 |
| 20260507140512 | 53 | 67 | 6.0 | 14.0 | 0.00 | 0.00 | 0.00 | 51 | 1015.9 |
| 20260507140030 | 53 | 355 | 5.0 | 14.0 | 0.00 | 0.00 | 0.00 | 52 | 1015.9 |
| 20260507135509 | 53 | 31 | 5.0 | 12.0 | 0.00 | 0.00 | 0.00 | 54 | 1015.8 |
| 20260507135012 | 52 | 39 | 5.0 | 12.0 | 0.00 | 0.00 | 0.00 | 52 | 1016.0 |
| 20260507134531 | 52 | 354 | 6.0 | 11.0 | 0.00 | 0.00 | 0.00 | 52 | 1016.0 |
| 20260507134009 | 52 | 86 | 5.0 | 11.0 | 0.00 | 0.00 | 0.00 | 54 | 1015.9 |
| 20260507133511 | 51 | 349 | 5.0 | 9.0 | 0.00 | 0.00 | 0.00 | 56 | 1015.9 |
| 20260507133031 | 51 | 23 | 6.0 | 10.0 | 0.00 | 0.00 | 0.00 | 56 | 1015.9 |
| 20260507132513 | 51 | 37 | 5.0 | 10.0 | 0.00 | 0.00 | 0.00 | 58 | 1015.9 |
| 20260507132009 | 51 | 328 | 3.0 | 8.0 | 0.00 | 0.00 | 0.00 | 60 | 1015.8 |
| 20260507131530 | 51 | 5 | 3.0 | 8.0 | 0.00 | 0.00 | 0.00 | 62 | 1015.8 |
| 20260507131013 | 51 | 14 | 3.0 | 8.0 | 0.00 | 0.00 | 0.00 | 64 | 1015.8 |
| 20260507130517 | 50 | 62 | 4.0 | 9.0 | 0.00 | 0.00 | 0.00 | 64 | 1015.8 |
| 20260507130038 | 50 | 37 | 6.0 | 9.0 | 0.00 | 0.00 | 0.00 | 63 | 1015.9 |
| 20260507125510 | 50 | 34 | 4.0 | 8.0 | 0.00 | 0.00 | 0.00 | 65 | 1015.9 |
| 20260507125013 | 49 | 42 | 4.0 | 8.0 | 0.00 | 0.00 | 0.00 | 66 | 1015.7 |
| 20260507124538 | 49 | 27 | 4.0 | 7.0 | 0.00 | 0.00 | 0.00 | 67 | 1015.7 |
| 20260507124013 | 49 | 51 | 3.0 | 7.0 | 0.00 | 0.00 | 0.00 | 68 | 1015.6 |
| 20260507123517 | 49 | 338 | 3.0 | 7.0 | 0.00 | 0.00 | 0.00 | 70 | 1015.8 |
| 20260507123032 | 48 | 12 | 4.0 | 7.0 | 0.00 | 0.00 | 0.00 | 70 | 1015.7 |
| 20260507122514 | 48 | 30 | 3.0 | 6.0 | 0.00 | 0.00 | 0.00 | 72 | 1015.7 |
| 20260507122013 | 48 | 37 | 4.0 | 6.0 | 0.00 | 0.00 | 0.00 | 73 | 1015.8 |
| 20260507121531 | 47 | 70 | 3.0 | 6.0 | 0.00 | 0.00 | 0.00 | 75 | 1015.8 |
| 20260507121012 | 47 | 342 | 1.0 | 6.0 | 0.00 | 0.00 | 0.00 | 77 | 1015.9 |
| 20260507120514 | 46 | 14 | 3.0 | 6.0 | 0.00 | 0.00 | 0.00 | 77 | 1015.9 |
| 20260507120032 | 46 | 350 | 2.0 | 4.0 | 0.00 | 0.00 | 0.00 | 78 | 1015.9 |
| 20260507115513 | 46 | 32 | 2.0 | 4.0 | 0.00 | 0.00 | 0.00 | 78 | 1015.9 |
| 20260507115017 | 46 | 39 | 1.0 | 2.0 | 0.00 | 0.00 | 0.00 | 80 | 1015.9 |
| 20260507114554 | 45 | 0 | 0.0 | 0.0 | 0.00 | 0.00 | 0.00 | 81 | 1015.9 |
| 20260507114018 | 46 | 0 | 0.0 | 1.0 | 0.00 | 0.00 | 0.00 | 82 | 1015.9 |
| 20260507113515 | 45 | 0 | 0.0 | 2.0 | 0.00 | 0.00 | 0.00 | 82 | 1015.9 |
| 20260507113057 | 45 | 49 | 1.0 | 3.0 | 0.00 | 0.00 | 0.00 | 80 | 1015.9 |
| 20260507112513 | 45 | 0 | 0.0 | 3.0 | 0.00 | 0.00 | 0.00 | 82 | 1016.0 |
| 20260507112013 | 44 | 34 | 1.0 | 3.0 | 0.00 | 0.00 | 0.00 | 83 | 1015.8 |
| 20260507111538 | 44 | 54 | 0.0 | 3.0 | 0.00 | 0.00 | 0.00 | 83 | 1015.7 |
| 20260507111011 | 43 | 54 | 0.0 | 3.0 | 0.00 | 0.00 | 0.00 | 84 | 1015.6 |
| 20260507110513 | 43 | 343 | 1.0 | 4.0 | 0.00 | 0.00 | 0.00 | 84 | 1015.7 |
| 20260507110032 | 43 | 6 | 1.0 | 4.0 | 0.00 | 0.00 | 0.00 | 85 | 1015.6 |
| 20260507105514 | 43 | 345 | 2.0 | 4.0 | 0.00 | 0.00 | 0.00 | 84 | 1015.5 |
| 20260507105015 | 43 | 25 | 2.0 | 4.0 | 0.00 | 0.00 | 0.00 | 84 | 1015.5 |
| 20260507104539 | 43 | 5 | 2.0 | 3.0 | 0.00 | 0.00 | 0.00 | 84 | 1015.4 |
| 20260507104014 | 43 | 4 | 1.0 | 3.0 | 0.00 | 0.00 | 0.00 | 84 | 1015.4 |
| 20260507103512 | 44 | 11 | 1.0 | 4.0 | 0.00 | 0.00 | 0.00 | 84 | 1015.3 |
| 20260507103030 | 44 | 27 | 2.0 | 6.0 | 0.00 | 0.00 | 0.00 | 83 | 1015.3 |
| 20260507102513 | 44 | 47 | 3.0 | 6.0 | 0.00 | 0.00 | 0.00 | 83 | 1015.1 |
| 20260507102015 | 44 | 359 | 3.0 | 6.0 | 0.00 | 0.00 | 0.00 | 83 | 1015.2 |
| 20260507101532 | 44 | 45 | 3.0 | 6.0 | 0.00 | 0.00 | 0.00 | 83 | 1015.1 |
| 20260507101016 | 44 | 45 | 2.0 | 6.0 | 0.00 | 0.00 | 0.00 | 84 | 1015.2 |
| 20260507100513 | 44 | 13 | 3.0 | 6.0 | 0.00 | 0.00 | 0.00 | 84 | 1015.3 |
| 20260507100029 | 44 | 18 | 3.0 | 6.0 | 0.00 | 0.00 | 0.00 | 85 | 1015.2 |
| 20260507095514 | 44 | 1 | 3.0 | 6.0 | 0.00 | 0.00 | 0.00 | 85 | 1015.3 |
| 20260507095013 | 44 | 39 | 3.0 | 6.0 | 0.00 | 0.00 | 0.00 | 86 | 1015.3 |
| 20260507094535 | 44 | 34 | 3.0 | 7.0 | 0.00 | 0.00 | 0.00 | 86 | 1015.3 |
| 20260507094012 | 45 | 12 | 3.0 | 7.0 | 0.00 | 0.00 | 0.00 | 86 | 1015.2 |
| 20260507093517 | 45 | 30 | 3.0 | 7.0 | 0.00 | 0.00 | 0.00 | 86 | 1015.2 |
| 20260507093035 | 45 | 36 | 3.0 | 6.0 | 0.00 | 0.00 | 0.00 | 87 | 1015.3 |
| 20260507092515 | 45 | 31 | 3.0 | 5.0 | 0.00 | 0.00 | 0.00 | 87 | 1015.3 |
| 20260507092014 | 44 | 32 | 3.0 | 5.0 | 0.00 | 0.00 | 0.00 | 88 | 1015.2 |
| 20260507091536 | 44 | 43 | 1.0 | 4.0 | 0.00 | 0.00 | 0.00 | 89 | 1015.3 |
| 20260507091010 | 44 | 307 | 1.0 | 4.0 | 0.00 | 0.00 | 0.00 | 89 | 1015.2 |
| 20260507090516 | 44 | 354 | 1.0 | 3.0 | 0.00 | 0.00 | 0.00 | 89 | 1015.1 |
| 20260507090032 | 44 | 347 | 1.0 | 3.0 | 0.00 | 0.00 | 0.00 | 89 | 1015.1 |
| 20260507085514 | 44 | 340 | 1.0 | 3.0 | 0.00 | 0.00 | 0.00 | 89 | 1015.0 |
| 20260507085013 | 44 | 0 | 0.0 | 1.0 | 0.00 | 0.00 | 0.00 | 89 | 1015.0 |
| 20260507084540 | 45 | 43 | 0.0 | 1.0 | 0.00 | 0.00 | 0.00 | 89 | 1014.9 |
| 20260507084011 | 45 | 43 | 0.0 | 1.0 | 0.00 | 0.00 | 0.00 | 89 | 1014.8 |
| 20260507083514 | 45 | 43 | 0.0 | 1.0 | 0.00 | 0.00 | 0.00 | 89 | 1014.9 |
| 20260507083030 | 45 | 43 | 0.0 | 2.0 | 0.00 | 0.00 | 0.00 | 88 | 1014.7 |
| 20260507082513 | 45 | 43 | 1.0 | 2.0 | 0.00 | 0.00 | 0.00 | 89 | 1014.8 |
| 20260507082014 | 45 | 11 | 1.0 | 2.0 | 0.00 | 0.00 | 0.00 | 89 | 1014.7 |
| 20260507081536 | 45 | 24 | 1.0 | 1.0 | 0.00 | 0.00 | 0.00 | 89 | 1014.7 |
| 20260507081013 | 45 | 24 | 0.0 | 2.0 | 0.00 | 0.00 | 0.00 | 90 | 1014.8 |
| 20260507080515 | 45 | 21 | 0.0 | 2.0 | 0.00 | 0.00 | 0.00 | 90 | 1014.6 |
| 20260507080030 | 45 | 0 | 0.0 | 2.0 | 0.00 | 0.00 | 0.00 | 91 | 1014.7 |
| 20260507075512 | 45 | 37 | 0.0 | 1.0 | 0.00 | 0.03 | 0.00 | 92 | 1014.7 |
| 20260507075014 | 44 | 37 | 0.0 | 1.0 | 0.00 | 0.03 | 0.00 | 93 | 1014.7 |
| 20260507074532 | 44 | 0 | 0.0 | 1.0 | 0.00 | 0.03 | 0.00 | 93 | 1014.7 |
| 20260507074013 | 44 | 0 | 0.0 | 1.0 | 0.00 | 0.03 | 0.00 | 93 | 1014.8 |
| 20260507073512 | 45 | 0 | 0.0 | 1.0 | 0.00 | 0.03 | 0.00 | 93 | 1014.6 |
| 20260507073034 | 45 | 0 | 0.0 | 1.0 | 0.00 | 0.03 | 0.00 | 93 | 1014.7 |
| 20260507072515 | 45 | 0 | 0.0 | 1.0 | 0.00 | 0.03 | 0.00 | 93 | 1014.6 |
| 20260507072013 | 45 | 0 | 0.0 | 1.0 | 0.00 | 0.03 | 0.00 | 94 | 1014.6 |
| 20260507071530 | 45 | 0 | 0.0 | 1.0 | 0.00 | 0.03 | 0.00 | 93 | 1014.7 |
| 20260507071013 | 45 | 0 | 0.0 | 1.0 | 0.00 | 0.03 | 0.00 | 93 | 1014.6 |
| 20260507070511 | 45 | 0 | 0.0 | 1.0 | 0.00 | 0.03 | 0.00 | 93 | 1014.6 |
| 20260507070030 | 45 | 0 | 0.0 | 1.0 | 0.00 | 0.03 | 0.00 | 93 | 1014.5 |
| 20260507065513 | 45 | 0 | 0.0 | 1.0 | 0.00 | 0.15 | 0.00 | 93 | 1014.7 |
| 20260507065013 | 45 | 0 | 0.0 | 1.0 | 0.00 | 0.15 | 0.00 | 93 | 1014.7 |
| 20260507064534 | 45 | 0 | 0.0 | 1.0 | 0.00 | 0.15 | 0.00 | 93 | 1014.7 |
| 20260507064012 | 45 | 0 | 0.0 | 1.0 | 0.00 | 0.15 | 0.00 | 93 | 1014.7 |
| 20260507063517 | 45 | 37 | 0.0 | 1.0 | 0.00 | 0.15 | 0.00 | 94 | 1014.9 |
| 20260507063029 | 45 | 0 | 0.0 | 1.0 | 0.00 | 0.15 | 0.00 | 93 | 1014.7 |
| 20260507062514 | 45 | 37 | 0.0 | 1.0 | 0.00 | 0.15 | 0.00 | 93 | 1014.7 |
| 20260507062014 | 45 | 0 | 0.0 | 1.0 | 0.00 | 0.15 | 0.00 | 93 | 1014.9 |
| 20260507061532 | 45 | 0 | 0.0 | 1.0 | 0.00 | 0.15 | 0.00 | 93 | 1014.7 |
| 20260507061013 | 45 | 0 | 0.0 | 1.0 | 0.00 | 0.15 | 0.00 | 93 | 1014.8 |
| 20260507060513 | 45 | 0 | 0.0 | 1.0 | 0.00 | 0.15 | 0.00 | 93 | 1014.7 |
| 20260507060033 | 45 | 37 | 0.0 | 1.0 | 0.00 | 0.15 | 0.00 | 93 | 1014.8 |
| 20260507055513 | 45 | 0 | 0.0 | 1.0 | 0.00 | 0.28 | 0.00 | 93 | 1015.0 |
| 20260507055018 | 46 | 0 | 0.0 | 1.0 | 0.00 | 0.28 | 0.00 | 93 | 1014.9 |
| 20260507054531 | 46 | 0 | 0.0 | 1.0 | 0.00 | 0.28 | 0.00 | 93 | 1014.8 |
| 20260507054010 | 46 | 0 | 0.0 | 1.0 | 0.00 | 0.28 | 0.00 | 92 | 1014.8 |
| 20260507053511 | 46 | 0 | 0.0 | 1.0 | 0.00 | 0.28 | 0.00 | 92 | 1014.8 |
| 20260507053031 | 46 | 37 | 0.0 | 1.0 | 0.00 | 0.28 | 0.00 | 92 | 1014.9 |
| 20260507052514 | 46 | 0 | 0.0 | 0.0 | 0.00 | 0.28 | 0.00 | 92 | 1014.8 |
| 20260507052015 | 46 | 0 | 0.0 | 0.0 | 0.00 | 0.28 | 0.00 | 91 | 1014.8 |
| 20260507051533 | 46 | 0 | 0.0 | 0.0 | 0.00 | 0.28 | 0.00 | 91 | 1014.8 |
| 20260507051009 | 46 | 0 | 0.0 | 0.0 | 0.00 | 0.28 | 0.00 | 91 | 1014.9 |
| 20260507050512 | 47 | 0 | 0.0 | 0.0 | 0.00 | 0.28 | 0.00 | 91 | 1014.7 |
| 20260507050031 | 47 | 0 | 0.0 | 0.0 | 0.00 | 0.28 | 0.00 | 91 | 1014.7 |
| 20260507045517 | 47 | 0 | 0.0 | 0.0 | 0.00 | 0.65 | 0.00 | 90 | 1014.6 |
| 20260507045015 | 47 | 0 | 0.0 | 0.0 | 0.00 | 0.65 | 0.00 | 90 | 1014.6 |
| 20260507044532 | 47 | 0 | 0.0 | 0.0 | 0.00 | 0.65 | 0.00 | 90 | 1014.5 |
| 20260507044013 | 47 | 0 | 0.0 | 0.0 | 0.00 | 0.65 | 0.00 | 90 | 1014.6 |
| 20260507043511 | 47 | 0 | 0.0 | 1.0 | 0.00 | 0.65 | 0.00 | 90 | 1014.7 |
| 20260507043038 | 48 | 0 | 0.0 | 1.0 | 0.00 | 0.65 | 0.00 | 90 | 1014.9 |
| 20260507042512 | 48 | 0 | 0.0 | 1.0 | 0.00 | 0.65 | 0.00 | 89 | 1014.8 |
| 20260507042017 | 48 | 0 | 0.0 | 1.0 | 0.00 | 0.65 | 0.00 | 88 | 1014.9 |
| 20260507041530 | 48 | 0 | 0.0 | 1.0 | 0.00 | 0.65 | 0.00 | 88 | 1014.7 |
| 20260507041014 | 48 | 0 | 0.0 | 1.0 | 0.00 | 0.65 | 0.00 | 88 | 1014.8 |
| 20260507040513 | 48 | 0 | 0.0 | 1.0 | 0.00 | 0.65 | 0.00 | 89 | 1014.8 |
| 20260507040032 | 48 | 37 | 0.0 | 1.0 | 0.00 | 0.65 | 0.00 | 90 | 1014.9 |
| 20260507035513 | 48 | 0 | 0.0 | 1.0 | 0.00 | 0.72 | 0.65 | 90 | 1015.1 |
| 20260507035014 | 48 | 0 | 0.0 | 1.0 | 0.00 | 0.72 | 0.65 | 90 | 1015.0 |
| 20260507034535 | 48 | 0 | 0.0 | 1.0 | 0.00 | 0.72 | 0.65 | 90 | 1015.1 |
| 20260507034015 | 49 | 0 | 0.0 | 1.0 | 0.00 | 0.72 | 0.65 | 89 | 1015.2 |
| 20260507033513 | 49 | 0 | 0.0 | 1.0 | 0.00 | 0.72 | 0.65 | 89 | 1015.1 |
| 20260507033034 | 49 | 0 | 0.0 | 1.0 | 0.00 | 0.72 | 0.65 | 88 | 1015.1 |
| 20260507032516 | 49 | 37 | 0.0 | 1.0 | 0.00 | 0.72 | 0.65 | 87 | 1015.0 |
| 20260507032014 | 49 | 0 | 0.0 | 0.0 | 0.00 | 0.72 | 0.65 | 86 | 1014.9 |
| 20260507031533 | 49 | 0 | 0.0 | 1.0 | 0.00 | 0.72 | 0.65 | 85 | 1014.8 |
| 20260507031013 | 50 | 0 | 0.0 | 1.0 | 0.00 | 0.72 | 0.65 | 85 | 1014.7 |
| 20260507030517 | 50 | 0 | 0.0 | 0.0 | 0.00 | 0.72 | 0.65 | 85 | 1014.8 |
| 20260507030030 | 50 | 0 | 0.0 | 0.0 | 0.00 | 0.72 | 0.65 | 84 | 1014.7 |
| 20260507025512 | 50 | 0 | 0.0 | 0.0 | 0.00 | 0.73 | 0.65 | 84 | 1014.7 |
| 20260507025015 | 50 | 0 | 0.0 | 0.0 | 0.00 | 0.73 | 0.65 | 83 | 1014.6 |
| 20260507024532 | 51 | 0 | 0.0 | 0.0 | 0.00 | 0.73 | 0.65 | 83 | 1014.6 |
| 20260507024014 | 51 | 0 | 0.0 | 0.0 | 0.00 | 0.73 | 0.65 | 83 | 1014.5 |
| 20260507023513 | 51 | 0 | 0.0 | 0.0 | 0.00 | 0.73 | 0.65 | 82 | 1014.5 |
| 20260507023030 | 51 | 0 | 0.0 | 0.0 | 0.00 | 0.73 | 0.65 | 82 | 1014.6 |
| 20260507022513 | 51 | 0 | 0.0 | 0.0 | 0.00 | 0.73 | 0.65 | 80 | 1014.4 |
| 20260507022015 | 52 | 0 | 0.0 | 0.0 | 0.00 | 0.73 | 0.65 | 79 | 1014.5 |
| 20260507021530 | 52 | 0 | 0.0 | 0.0 | 0.00 | 0.73 | 0.65 | 79 | 1014.5 |
| 20260507021011 | 52 | 0 | 0.0 | 0.0 | 0.00 | 0.73 | 0.65 | 78 | 1014.4 |
| 20260507020513 | 53 | 0 | 0.0 | 0.0 | 0.00 | 0.73 | 0.65 | 77 | 1014.1 |
| 20260507020045 | 53 | 0 | 0.0 | 0.0 | 0.00 | 0.73 | 0.65 | 77 | 1014.2 |
| 20260507015510 | 53 | 0 | 0.0 | 0.0 | 0.00 | 0.73 | 0.65 | 76 | 1014.2 |
| 20260507015012 | 53 | 0 | 0.0 | 0.0 | 0.00 | 0.73 | 0.65 | 75 | 1014.2 |
| 20260507014534 | 54 | 0 | 0.0 | 0.0 | 0.00 | 0.73 | 0.65 | 73 | 1014.1 |
| 20260507014010 | 54 | 0 | 0.0 | 0.0 | 0.00 | 0.73 | 0.65 | 72 | 1014.1 |
| 20260507013512 | 55 | 0 | 0.0 | 0.0 | 0.00 | 0.73 | 0.65 | 72 | 1014.3 |
| 20260507013029 | 55 | 0 | 0.0 | 0.0 | 0.00 | 0.73 | 0.65 | 70 | 1014.1 |
| 20260507012512 | 55 | 0 | 0.0 | 1.0 | 0.00 | 0.73 | 0.65 | 68 | 1014.2 |
| 20260507012014 | 55 | 0 | 0.0 | 1.0 | 0.00 | 0.73 | 0.65 | 68 | 1014.2 |
| 20260507011541 | 55 | 37 | 0.0 | 2.0 | 0.00 | 0.73 | 0.65 | 67 | 1014.3 |
| 20260507011010 | 56 | 0 | 0.0 | 2.0 | 0.00 | 0.73 | 0.65 | 66 | 1014.1 |
| 20260507010513 | 56 | 37 | 1.0 | 2.0 | 0.00 | 0.73 | 0.65 | 65 | 1014.0 |
| 20260507010034 | 56 | 37 | 1.0 | 2.0 | 0.00 | 0.73 | 0.65 | 65 | 1014.1 |
| 20260507005511 | 56 | 36 | 1.0 | 2.0 | 0.00 | 0.74 | 0.65 | 65 | 1014.1 |
| 20260507005013 | 56 | 39 | 1.0 | 2.0 | 0.00 | 0.74 | 0.65 | 65 | 1014.2 |
| 20260507004531 | 56 | 5 | 0.0 | 1.0 | 0.00 | 0.74 | 0.65 | 65 | 1014.0 |
| 20260507004010 | 56 | 0 | 0.0 | 2.0 | 0.00 | 0.74 | 0.65 | 66 | 1014.2 |
| 20260507003515 | 57 | 6 | 0.0 | 2.0 | 0.00 | 0.74 | 0.65 | 65 | 1014.1 |
| 20260507003030 | 57 | 6 | 1.0 | 5.0 | 0.00 | 0.74 | 0.65 | 65 | 1014.2 |
| 20260507002513 | 57 | 33 | 1.0 | 5.0 | 0.00 | 0.74 | 0.65 | 64 | 1014.0 |
| 20260507002015 | 57 | 12 | 0.0 | 5.0 | 0.00 | 0.74 | 0.65 | 65 | 1014.0 |
| 20260507001602 | 57 | 324 | 1.0 | 5.0 | 0.00 | 0.74 | 0.65 | 64 | 1014.0 |
| 20260507001012 | 57 | 43 | 2.0 | 7.0 | 0.00 | 0.74 | 0.65 | 64 | 1014.1 |
| 20260507000514 | 57 | 339 | 3.0 | 7.0 | 0.00 | 0.74 | 0.65 | 63 | 1013.9 |
| 20260507000040 | 57 | 21 | 1.0 | 4.0 | 0.00 | 0.74 | 0.65 | 63 | 1013.9 |
| 20260506235511 | 57 | 311 | 1.0 | 5.0 | 0.00 | 0.80 | 0.65 | 62 | 1013.7 |
| 20260506235014 | 57 | 51 | 3.0 | 6.0 | 0.00 | 0.80 | 0.65 | 62 | 1013.7 |
| 20260506234531 | 57 | 51 | 2.0 | 6.0 | 0.00 | 0.80 | 0.65 | 62 | 1013.5 |
| 20260506234010 | 57 | 318 | 3.0 | 6.0 | 0.00 | 0.80 | 0.65 | 61 | 1013.5 |
| 20260506233510 | 57 | 7 | 2.0 | 6.0 | 0.00 | 0.80 | 0.65 | 63 | 1013.6 |
| 20260506233030 | 57 | 340 | 2.0 | 6.0 | 0.00 | 0.80 | 0.65 | 63 | 1013.6 |
| 20260506232510 | 57 | 325 | 3.0 | 6.0 | 0.00 | 0.80 | 0.65 | 63 | 1013.9 |
| 20260506232012 | 58 | 20 | 3.0 | 6.0 | 0.00 | 0.80 | 0.65 | 62 | 1013.9 |
| 20260506231531 | 58 | 9 | 3.0 | 6.0 | 0.00 | 0.80 | 0.65 | 62 | 1013.7 |
| 20260506231013 | 58 | 20 | 2.0 | 7.0 | 0.00 | 0.80 | 0.65 | 62 | 1013.6 |
| 20260506230517 | 58 | 0 | 2.0 | 7.0 | 0.00 | 0.80 | 0.65 | 62 | 1013.7 |
| 20260506230049 | 58 | 355 | 4.0 | 7.0 | 0.00 | 0.80 | 0.65 | 60 | 1013.7 |
| 20260506225513 | 58 | 323 | 1.0 | 7.0 | 0.00 | 0.91 | 0.65 | 61 | 1013.7 |
| 20260506225013 | 58 | 345 | 2.0 | 8.0 | 0.00 | 0.91 | 0.65 | 60 | 1013.5 |
| 20260506224530 | 58 | 359 | 3.0 | 8.0 | 0.00 | 0.91 | 0.65 | 60 | 1013.2 |
| 20260506224011 | 58 | 333 | 4.0 | 11.0 | 0.00 | 0.91 | 0.65 | 59 | 1013.3 |
| 20260506223512 | 58 | 295 | 4.0 | 11.0 | 0.00 | 0.91 | 0.65 | 60 | 1013.0 |
| 20260506223032 | 58 | 345 | 4.0 | 11.0 | 0.00 | 0.91 | 0.65 | 59 | 1013.0 |
| 20260506222516 | 58 | 46 | 3.0 | 6.0 | 0.00 | 0.91 | 0.65 | 59 | 1013.1 |
| 20260506222011 | 58 | 11 | 3.0 | 8.0 | 0.00 | 0.91 | 0.65 | 59 | 1013.1 |
| 20260506221530 | 59 | 344 | 4.0 | 8.0 | 0.00 | 0.91 | 0.65 | 58 | 1013.1 |
| 20260506221013 | 59 | 25 | 4.0 | 9.0 | 0.00 | 0.91 | 0.65 | 59 | 1013.2 |
| 20260506220513 | 59 | 353 | 4.0 | 9.0 | 0.00 | 0.91 | 0.65 | 59 | 1013.1 |
| 20260506220035 | 59 | 338 | 4.0 | 9.0 | 0.00 | 0.91 | 0.65 | 59 | 1013.0 |
| 20260506215510 | 59 | 261 | 3.0 | 7.0 | 0.00 | 0.91 | 0.65 | 59 | 1012.9 |
| 20260506215011 | 59 | 27 | 3.0 | 8.0 | 0.00 | 0.91 | 0.65 | 59 | 1012.8 |
| 20260506214529 | 59 | 355 | 4.0 | 8.0 | 0.00 | 0.91 | 0.65 | 59 | 1013.0 |
| 20260506214013 | 59 | 35 | 4.0 | 10.0 | 0.00 | 0.91 | 0.65 | 58 | 1013.0 |
| 20260506213515 | 59 | 351 | 3.0 | 10.0 | 0.00 | 0.91 | 0.65 | 58 | 1013.3 |
| 20260506213033 | 59 | 28 | 5.0 | 8.0 | 0.00 | 0.91 | 0.65 | 58 | 1013.2 |
| 20260506212511 | 60 | 7 | 3.0 | 7.0 | 0.00 | 0.91 | 0.65 | 58 | 1013.1 |
| 20260506212017 | 60 | 280 | 1.0 | 6.0 | 0.00 | 0.91 | 0.65 | 60 | 1013.4 |
| 20260506211530 | 60 | 332 | 2.0 | 5.0 | 0.00 | 0.91 | 0.65 | 59 | 1013.5 |
| 20260506211013 | 60 | 328 | 2.0 | 6.0 | 0.00 | 0.91 | 0.65 | 59 | 1013.4 |
| 20260506210517 | 60 | 282 | 1.0 | 6.0 | 0.00 | 0.91 | 0.65 | 59 | 1013.3 |
| 20260506210047 | 60 | 356 | 3.0 | 6.0 | 0.00 | 0.91 | 0.65 | 58 | 1013.1 |
| 20260506205511 | 60 | 336 | 1.0 | 6.0 | 0.00 | 0.91 | 0.65 | 59 | 1013.3 |
| 20260506205017 | 60 | 274 | 1.0 | 8.0 | 0.00 | 0.91 | 0.65 | 59 | 1013.2 |
| 20260506204530 | 60 | 336 | 3.0 | 8.0 | 0.00 | 0.91 | 0.65 | 58 | 1013.4 |
| 20260506204013 | 60 | 6 | 5.0 | 9.0 | 0.00 | 0.91 | 0.65 | 56 | 1013.4 |
| 20260506203514 | 61 | 342 | 4.0 | 9.0 | 0.00 | 0.91 | 0.65 | 57 | 1013.4 |
| 20260506203031 | 61 | 11 | 2.0 | 7.0 | 0.00 | 0.91 | 0.65 | 58 | 1013.3 |
| 20260506202515 | 61 | 43 | 3.0 | 10.0 | 0.00 | 0.91 | 0.65 | 55 | 1013.4 |
| 20260506202015 | 60 | 324 | 3.0 | 10.0 | 0.00 | 0.91 | 0.65 | 57 | 1013.2 |